Location: Ladrillo (historical)
(32.8195°N, 117.2231°W)
Time: 07:00:36
(UTC+00:00)

FO-99 - Pass Details

Date: 18 April 2021
Orbit: 472 x 506 km, 97.2° (Epoch: 09 May)

Event Time Altitude Azimuth Distance (km) Brightness Sun altitude
Exits shadow 04:22:40 36° 237° (WSW) 812 ? -24.4°
Maximum altitude 04:23:15 39° 262° (W) 770 ? -24.5°
Drops below altitude 10° 04:26:45 10° 332° (NNW) 1,722 ? -25.1°
Sets 04:28:57 0° 340° (NNW) 2,611 ? -25.5°
